THOR ABLESTAR DEB, 3592

Orbit data source: Space-Track

THOR ABLESTAR DEB, 3592 is space debris in LEO originally from a launch on Thu, 24 Jun 1965 UTC launched from the Air Force Western Test Range (AFWTR). Debris objects in space refer to the collection of defunct objects orbiting the Earth. Examples of debris include non-operational satellites, rocket bodies, and fragments generated from explosions, collisions, or faulty payload assembly.

Loading next visibility...
Identifier
3592, 1965-048F
Orbit
LEO
Country
Flag of USUS
Related business
Manufacturer
Unknown
Mission
Spacecraft
Bus & Motor
Unknown
Mass
Unknown
Launch date (UTC)
1965-06-24 (61 years ago)
Launch vehicle
Unknown
Launch site
Air Force Western Test Range (AFWTR)
Object type
Payload
Rocket body
Debris
Shape & HBR
Unknown shape, 0.1 m
Radar Cross Section
Small (<0.1 m²)

Expand to show TLE details & history
Last TLE update: 3 hours ago

TLE from 3 hours ago
0 THOR ABLESTAR DEB
1  3592U 65048F   26128.22351019  .00000249  00000-0  30267-3 0  9990
2  3592  89.8728 288.2394 0062546  80.1434  43.4514 13.62697710 14516
Epoch: 2026-05-08T05:21Z
TLE epoch observation values (Epoch: 2026-05-08T05:21:51.280Z)
Latitude
56.00385°
Longitude
161.52973°
Altitude
1,001.829 km
Speed
7.373 km/s
True Right ascension
07h 12m 12s
True Declination
55° 50' 58"
Sunlit
Object was in daylight at epoch
Visualization orbit readout
Latitude
Unknown
Longitude
Unknown
Altitude
Unknown
Speed
Unknown
Apparent Right ascension
Unknown
Apparent Declination
Unknown
Sunlit
N/A
Visualization observer readout
Local Sidereal Time
16:43:05
Azimuth
Unknown
Elevation
Unknown
Doppler factor
Unknown
Orbital elements
Apogee altitude
1,069.226 km
Perigee altitude
976.645 km
Semi-major axis
7,401.072 km
Eccentricity
0.00625
Inclination
89.8728°
RAAN
288.2394°
Arg. of periapsis
80.1434°
True anomaly
43.94713°
Mean anomaly
43.4514°
Eccentric anomaly
43.69898°
Mean motion
3.4088 °/min
Orbital period
105.61 mins
BSTAR
0.00030267
Loading maneuver chart data...
Computing Atmospheric mass density...

Documentation

Showing up to 5 results
|